Regional Weather Roundup
Issued by NWS Huntsville, AL

Home | Current Version | Previous Version | Text Only | Print | Product List | Glossary On
Versions: 1 2 3 4 5 6 7 8 9 10 11 12 13 14 15 16 17 18 19 20 21 22 23 24 25 26 27 28 29 30 31 32 33 34 35 36 37 38 39 40 41 42 43 44 45 46 47 48 49 50
000
ASUS44 KHUN 061310
RWRHUN

WEATHER ROUNDUP FOR THE TENNESSEE VALLEY
NATIONAL WEATHER SERVICE HUNTSVILLE AL
800 AM CDT MON JUL 06 2015

ALZ001>004-061400-
NORTHWEST ALABAMA

CITY           SKY/WX    TMP DP  RH WIND       PRES   REMARKS
SHOALS AIRPORT NOT AVBL
SHOALS TVA RES   N/A     70 N/A N/A MISG        N/A
$$

ALZ005>007-016-061400-
NORTH CENTRAL ALABAMA

CITY           SKY/WX    TMP DP  RH WIND       PRES   REMARKS
DECATUR AP     NOT AVBL
HUNTSVILLE AP  NOT AVBL
HUN NWS/UAH      N/A     74  67  78 NE2         N/A
REDSTONE ARSN  PTSUNNY   73  69  88 VRB1      30.15S
$$

ALZ008>010-061400-
NORTHEAST ALABAMA

CITY           SKY/WX    TMP DP  RH WIND       PRES   REMARKS
FORT PAYNE     NOT AVBL
SCOTTSBORO HCN   N/A     72 N/A N/A MISG        N/A
VALLEY HEAD      N/A     70 N/A N/A MISG        N/A
$$

TNZ076-096-097-061400-
SOUTHEASTERN MIDDLE TENNESSEE

CITY           SKY/WX    TMP DP  RH WIND       PRES   REMARKS
TULLAHOMA      NOT AVBL
$$

...SURROUNDING SITES...

CITY           SKY/WX    TMP DP  RH WIND       PRES   REMARKS
ATLANTA        NOT AVBL
ANNISTON       NOT AVBL
BIRMINGHAM     NOT AVBL
CHATTANOOGA    NOT AVBL
DALTON         NOT AVBL
GADSDEN        NOT AVBL
GOLDEN TRNGL   NOT AVBL
JACKSON TN     NOT AVBL
MEMPHIS        NOT AVBL
NASHVILLE      NOT AVBL
ROME           NOT AVBL
TUPELO         CLOUDY    71  69  93 SW6       30.17R
TUSCALOOSA     NOT AVBL
$$

...GULF COAST WEATHER...

CITY           SKY/WX    TMP DP  RH WIND       PRES   REMARKS
PENSACOLA      PTSUNNY   76  72  87 NW5       30.18R
PANAMA CITY    CLOUDY    80  73  77 W6        30.18R
$$




USA.gov is the U.S. government's official web portal to all federal, state and local government web resources and services.